CYBG

CFB Bagotville Airport

Bagotville, Quebec, Canada
Issued Wind Visibility Ceiling Temperature Dew Point Humidity Barometer
Sep-20
03:37 UTC
270°
3 KTS
7 miles Overcast
3,400' AGL
16° C
61° F
15° C
59° F
94% 30.11" Hg
1020 hPa
VFR
Sep-20
03:19 UTC
290°
5 KTS
6 miles Overcast
3,400' AGL
16° C
61° F
15° C
59° F
94% 30.11" Hg
1020 hPa
VFR
Sep-20
03:00 UTC
280°
5 KTS
6 miles Overcast
3,400' AGL
16° C
61° F
15° C
59° F
94% 30.11" Hg
1020.1 hPa
VFR
Sep-20
02:49 UTC
270°
4 KTS
6 miles Overcast
3,200' AGL
16° C
61° F
15° C
59° F
94% 30.11" Hg
1020.1 hPa
VFR
Sep-20
02:00 UTC
270°
5 KTS
6 miles Overcast
1,000' AGL
16° C
61° F
15° C
59° F
94% 30.11" Hg
1020.1 hPa
MVFR
Sep-20
01:00 UTC
250°
5 KTS
6 miles Overcast
600' AGL
16° C
61° F
15° C
59° F
94% 30.1" Hg
1019.8 hPa
IFR
Sep-20
00:00 UTC
250°
5 KTS
6 miles Overcast
500' AGL
16° C
61° F
15° C
59° F
94% 30.1" Hg
1019.8 hPa
IFR
Sep-19
23:00 UTC
270°
5 KTS
6 miles Overcast
500' AGL
16° C
61° F
15° C
59° F
94% 30.09" Hg
1019.3 hPa
IFR
Sep-19
22:00 UTC
290°
9 KTS
6 miles Broken
500' AGL
17° C
63° F
16° C
61° F
94% 30.08" Hg
1018.9 hPa
IFR
Sep-19
21:00 UTC
300°
4 KTS
4 miles Overcast
500' AGL
18° C
64° F
17° C
63° F
94% 30.07" Hg
1018.7 hPa
IFR
Sep-19
20:27 UTC
250°
3 KTS
6 miles Broken
500' AGL
18° C
64° F
17° C
63° F
94% 30.07" Hg
1018.4 hPa
IFR
Sep-19
20:00 UTC
280°
4 KTS
3 miles Broken
1,000' AGL
18° C
64° F
17° C
63° F
94% 30.06" Hg
1018.2 hPa
MVFR
Sep-19
19:47 UTC
290°
4 KTS
3 miles Broken
500' AGL
18° C
64° F
17° C
63° F
94% 30.06" Hg
1018.2 hPa
IFR
Sep-19
19:37 UTC
7 miles Broken
500' AGL
18° C
64° F
17° C
63° F
94% 30.06" Hg
1018.2 hPa
IFR
Sep-19
19:19 UTC
7 miles Broken
3,000' AGL
18° C
64° F
17° C
63° F
94% 30.06" Hg
1018.1 hPa
MVFR
Sep-19
19:00 UTC
130°
2 KTS
7 miles Broken
3,000' AGL
18° C
64° F
17° C
63° F
94% 30.06" Hg
1018.3 hPa
MVFR
Sep-19
18:45 UTC
090°
2 KTS
7 miles Broken
3,000' AGL
18° C
64° F
17° C
63° F
94% 30.06" Hg
1018.3 hPa
MVFR
Sep-19
18:20 UTC
4 miles Overcast
2,500' AGL
17° C
63° F
16° C
61° F
94% 30.07" Hg
1018.4 hPa
MVFR
Sep-19
18:10 UTC
2 miles Broken
2,200' AGL
17° C
63° F
16° C
61° F
94% 30.07" Hg
1018.4 hPa
IFR
Sep-19
17:37 UTC
120°
4 KTS
10 miles Broken
2,200' AGL
17° C
63° F
15° C
59° F
88% 30.07" Hg
1018.5 hPa
MVFR
Sep-19
17:24 UTC
120°
4 KTS
10 miles Broken
2,500' AGL
17° C
63° F
15° C
59° F
88% 30.07" Hg
1018.5 hPa
MVFR
Sep-19
17:12 UTC
110°
4 KTS
8 miles Broken
3,000' AGL
16° C
61° F
15° C
59° F
94% 30.07" Hg
1018.6 hPa
MVFR
Sep-19
17:00 UTC
090°
6 KTS
10 miles Broken
3,500' AGL
16° C
61° F
15° C
59° F
94% 30.08" Hg
1018.9 hPa
VFR
Sep-19
16:40 UTC
090°
9 KTS
7 miles Broken
4,000' AGL
17° C
63° F
15° C
59° F
88% 30.08" Hg
1019 hPa
VFR
Sep-19
16:00 UTC
090°
8 KTS
4 miles Broken
3,000' AGL
16° C
61° F
15° C
59° F
94% 30.09" Hg
1019.3 hPa
MVFR
Sep-19
15:35 UTC
080°
6 KTS
4 miles Broken
3,000' AGL
15° C
59° F
15° C
59° F
100% 30.09" Hg
1019.3 hPa
MVFR
Sep-19
15:00 UTC
100°
6 KTS
2 1/2 miles Broken
3,000' AGL
15° C
59° F
14° C
57° F
94% 30.1" Hg
1019.6 hPa
IFR
Sep-19
14:50 UTC
090°
3 KTS
2 miles Overcast
3,000' AGL
14° C
57° F
14° C
57° F
100% 30.1" Hg
1019.7 hPa
IFR
Sep-19
14:40 UTC
120°
2 KTS
3/4 miles Broken
300' AGL
14° C
57° F
14° C
57° F
100% 30.1" Hg
1019.7 hPa
LIFR
Sep-19
14:15 UTC
130°
5 KTS
1/2 miles Vertical visibility
200' AGL
14° C
57° F
14° C
57° F
100% 30.1" Hg
1019.7 hPa
LIFR
Sep-19
14:00 UTC
110°
3 KTS
5 miles Broken
3,000' AGL
14° C
57° F
14° C
57° F
100% 30.1" Hg
1019.6 hPa
MVFR
Sep-19
13:45 UTC
130°
7 KTS
4 miles Overcast
3,000' AGL
14° C
57° F
13° C
55° F
94% 30.1" Hg
1019.6 hPa
MVFR
Sep-19
13:20 UTC
100°
7 KTS
2 miles Overcast
2,500' AGL
14° C
57° F
13° C
55° F
94% 30.1" Hg
1019.6 hPa
IFR
Sep-19
13:00 UTC
170°
3 KTS
3 miles Overcast
4,500' AGL
14° C
57° F
13° C
55° F
94% 30.11" Hg
1020 hPa
MVFR
Sep-19
12:45 UTC
100°
6 KTS
5 miles Overcast
5,000' AGL
14° C
57° F
13° C
55° F
94% 30.11" Hg
1019.9 hPa
MVFR
Sep-19
12:25 UTC
110°
6 KTS
7 miles Overcast
5,000' AGL
14° C
57° F
13° C
55° F
94% 30.1" Hg
1019.7 hPa
VFR
Sep-19
12:00 UTC
090°
7 KTS
8 miles Broken
5,000' AGL
13° C
55° F
13° C
55° F
100% 30.09" Hg
1019.3 hPa
VFR
Sep-19
11:00 UTC
130°
4 KTS
10 miles Broken
11,000' AGL
13° C
55° F
12° C
54° F
94% 30.09" Hg
1019.3 hPa
VFR
Sep-19
10:16 UTC
090°
4 KTS
3 miles Overcast
12,000' AGL
13° C
55° F
12° C
54° F
94% 30.09" Hg
1019.2 hPa
MVFR
Sep-19
10:00 UTC
110°
6 KTS
25 miles Overcast
12,000' AGL
13° C
55° F
12° C
54° F
94% 30.09" Hg
1019.2 hPa
VFR
Sep-19
09:32 UTC
130°
2 KTS
25 miles Overcast
13,000' AGL
13° C
55° F
12° C
54° F
94% 30.09" Hg
1019.3 hPa
VFR
Sep-19
09:00 UTC
100°
4 KTS
10 miles Broken
200' AGL
13° C
55° F
12° C
54° F
94% 30.09" Hg
1019.2 hPa
LIFR
Sep-19
08:47 UTC
110°
4 KTS
3 miles Overcast
200' AGL
13° C
55° F
12° C
54° F
94% 30.09" Hg
1019.3 hPa
LIFR
Sep-19
08:23 UTC
110°
4 KTS
1 miles Overcast
200' AGL
13° C
55° F
12° C
54° F
94% 30.09" Hg
1019.4 hPa
LIFR
Sep-19
08:00 UTC
110°
4 KTS
3 miles Broken
200' AGL
13° C
55° F
12° C
54° F
94% 30.1" Hg
1019.6 hPa
LIFR
Sep-19
07:00 UTC
110°
5 KTS
6 miles Overcast
5,000' AGL
13° C
55° F
13° C
55° F
100% 30.1" Hg
1019.5 hPa
VFR
Sep-19
06:00 UTC
110°
5 KTS
6 miles Broken
5,500' AGL
13° C
55° F
13° C
55° F
100% 30.1" Hg
1019.6 hPa
VFR
Sep-19
05:00 UTC
100°
10 KTS
25 miles   13° C
55° F
12° C
54° F
94% 30.1" Hg
1019.7 hPa
VFR
Sep-19
04:00 UTC
100°
7 KTS
25 miles Broken
24,000' AGL
13° C
55° F
12° C
54° F
94% 30.11" Hg
1020 hPa
VFR